SZ-19 DEB, 63801

Orbit data source: Space-Track

SZ-19 DEB, 63801 is space debris in LEO originally from a launch on Tue, 29 Oct 2024 UTC launched from the Jiuquan Satellite Launch Center, China (JSC). Debris objects in space refer to the collection of defunct objects orbiting the Earth. Examples of debris include non-operational satellites, rocket bodies, and fragments generated from explosions, collisions, or faulty payload assembly.

Loading next visibility...
Identifier
63801, 2024-194E
Orbit
LEO
Country
Flag of CNCN / PRC
Related business
None
Manufacturer
CAST
Mission
Civil Spaceship
Bus & Motor
SHENZHOU OM, Unknown motor
Mass
~1,842 kg wet, ~1,500 kg dry
Launch date (UTC)
2024-10-29 (11 months ago)
Launch vehicle
Unknown
Launch site
Jiuquan Satellite Launch Center, China (JSC)
Object type
Payload
Rocket body
Debris
Shape & HBR
Cyl + 2 Pan, 2.1 m
Radar Cross Section
9.277 m², Large (>1 m²)

Expand to show TLE details & history
Last TLE update: 1 day ago

TLE from 1 day ago
0 SZ-19 DEB
1 63801U 24194E   25257.20837597  .00033968  00000-0  28411-3 0  9998
2 63801  41.4714 193.6645 0010125 213.4667 146.5536 15.69220896 21217
Epoch: 2025-09-14T05:00Z
TLE epoch observation values (Epoch: 2025-09-14T05:00:03.683Z)
Latitude
-0.00002°
Longitude
125.21845°
Altitude
366.42 km
Speed
7.688 km/s
True Right ascension
12h 54m 39s
True Declination
0° 00' 00"
Sunlit
Object was in daylight at epoch
Visualization orbit readout
Latitude
Unknown
Longitude
Unknown
Altitude
Unknown
Speed
Unknown
Apparent Right ascension
Unknown
Apparent Declination
Unknown
Sunlit
N/A
Visualization observer readout
Local Sidereal Time
02:19:27
Azimuth
Unknown
Elevation
Unknown
Doppler factor
Unknown
Orbital elements
Apogee altitude
370.193 km
Perigee altitude
356.542 km
Semi-major axis
6,741.504 km
Eccentricity
0.00101
Inclination
41.4714°
RAAN
193.6645°
Arg. of periapsis
213.4667°
True anomaly
146.61748°
Mean anomaly
146.5536°
Eccentric anomaly
146.58555°
Mean motion
3.9211 °/min
Orbital period
91.81 mins
BSTAR
0.00028411
Loading maneuver chart data...
Computing Atmospheric mass density...
Loading historical data...
Loading historical data...
Loading historical data...
Loading historical data...
Loading historical data...
Loading historical data...
Loading historical data...

Documentation

Showing up to 5 results
|